CZ-6A DEB, 61135

Orbit data source: Space-Track

CZ-6A DEB, 61135 is space debris in LEO originally from a launch on Tue, 06 Aug 2024 UTC launched from the Taiyaun Space Center, China (TSC). Debris objects in space refer to the collection of defunct objects orbiting the Earth. Examples of debris include non-operational satellites, rocket bodies, and fragments generated from explosions, collisions, or faulty payload assembly.

Loading next visibility...
Identifier
61135, 2024-140QD
Orbit
LEO
Country
Flag of CNCN / PRC
Related business
Manufacturer
SAST
Mission
Spacecraft
Bus & Motor
Unknown
Mass
Unknown
Launch date (UTC)
2024-08-06 (2 years ago)
Launch vehicle
Unknown
Launch site
Taiyaun Space Center, China (TSC)
Object type
Payload
Rocket body
Debris
Shape & HBR
Unknown shape, 0.1 m
Radar Cross Section
Medium (>0.1 m² and <1 m²)

Expand to show TLE details & history
Last TLE update: 14 hours ago

TLE from 14 hours ago
0 CZ-6A DEB
1 61135U 24140QD  26171.25304175  .00000321  00000-0  20069-3 0  9997
2 61135  88.8554 265.8506 0142435 253.1181 105.4338 13.97745483 93162
Epoch: 2026-06-20T06:04Z
TLE epoch observation values (Epoch: 2026-06-20T06:04:22.807Z)
Latitude
0.00005°
Longitude
-93.71475°
Altitude
933.598 km
Speed
7.37 km/s
True Right ascension
17h 43m 24s
True Declination
0° 00' 00"
Sunlit
Object was in full shadow at epoch
Visualization orbit readout
Latitude
Unknown
Longitude
Unknown
Altitude
Unknown
Speed
Unknown
Apparent Right ascension
Unknown
Apparent Declination
Unknown
Sunlit
N/A
Visualization observer readout
Local Sidereal Time
07:17:47
Azimuth
Unknown
Elevation
Unknown
Doppler factor
Unknown
Orbital elements
Apogee altitude
1,002.242 km
Perigee altitude
794.95 km
Semi-major axis
7,276.733 km
Eccentricity
0.01424
Inclination
88.8554°
RAAN
265.8506°
Arg. of periapsis
253.1181°
True anomaly
106.99951°
Mean anomaly
105.4338°
Eccentric anomaly
106.21742°
Mean motion
3.49654 °/min
Orbital period
102.96 mins
BSTAR
0.00020069
Loading maneuver chart data...
Computing Atmospheric mass density...
Loading historical data...
Loading historical data...
Loading historical data...
Loading historical data...
Loading historical data...
Loading historical data...
Loading historical data...

Documentation

Showing up to 5 results
|